Date String (YYYY-MM-DD hh:mm:ss) UTC,Instrument flags,Ambient pressure (hPa),Sample flow (lpm),Bypass flow (lpm),Sample temperature (°C),Ambient temperature (°C),ASC tube jacket temperature (°C),LED temperature (°C),Box temperature (°C),Sample RH (%),Span deviation,Mass concentration (μg/m³),Mass concentration (μg/m³),Mass concentration (μg/m³)
DateTimeUTC,F1_M11,P_M11,Q1_M11,Q2_M11,T1_M11,T2_M11,T3_M11,T4_M11,T5_M11,U1_M11,ZSPAN_M11,X2_M11,X0_M11,X1_M11
2023-04-26 03:00:00,,0829.4,5.00,0.00,23.9,22.3,00.0,32.4,25.5,24.6,0000.0,0000.92,0001.39,0000.74
2023-04-26 03:01:00,,0829.4,5.00,0.00,23.9,22.3,00.0,32.4,25.5,24.6,0000.0,0000.94,0001.41,0000.73
2023-04-26 03:02:00,,0829.4,5.00,0.00,23.9,22.3,00.0,32.4,25.5,24.6,0000.0,0000.96,0001.48,0000.73
2023-04-26 03:03:00,,0829.4,5.00,0.00,23.9,22.3,00.0,32.4,25.4,24.6,0000.0,0000.95,0001.48,0000.72
2023-04-26 03:04:00,,0829.3,5.00,0.00,23.9,22.3,00.0,32.3,25.5,24.6,0000.0,0000.93,0001.43,0000.71
2023-04-26 03:05:00,,0829.3,5.00,0.00,23.9,22.3,00.0,32.3,25.5,24.6,0000.0,0000.94,0001.45,0000.72
2023-04-26 03:06:00,,0829.4,5.00,0.00,23.9,22.3,00.0,32.3,25.5,24.6,0000.0,0000.92,0001.41,0000.72
2023-04-26 03:07:00,,0829.4,5.00,0.00,23.9,22.3,00.0,32.3,25.5,24.6,0000.0,0000.93,0001.42,0000.72
2023-04-26 03:08:00,,0829.3,4.99,0.00,23.9,22.3,00.0,32.3,25.4,24.6,0000.0,0000.93,0001.42,0000.72
2023-04-26 03:09:00,,0829.3,4.99,0.00,23.9,22.3,00.0,32.3,25.4,24.6,0000.0,0000.91,0001.38,0000.71
2023-04-26 03:10:00,,0829.4,5.00,0.00,23.9,22.3,00.0,32.3,25.4,24.7,0000.0,0000.88,0001.31,0000.70
2023-04-26 03:11:00,,0829.3,5.00,0.00,23.8,22.3,00.0,32.3,25.4,24.7,0000.0,0000.88,0001.29,0000.70
2023-04-26 03:12:00,,0829.3,5.01,0.00,23.8,22.3,00.0,32.3,25.4,24.8,0000.0,0000.88,0001.32,0000.70
2023-04-26 03:13:00,,0829.4,5.02,0.00,23.8,22.3,00.0,32.3,25.4,24.8,0000.0,0000.85,0001.26,0000.69
2023-04-26 03:14:00,,0829.4,4.99,0.00,23.8,22.3,00.0,32.3,25.4,24.8,0000.0,0000.89,0001.44,0000.68
2023-04-26 03:15:00,,0829.3,4.99,0.00,23.8,22.3,00.0,32.3,25.4,24.8,0000.0,0000.90,0001.49,0000.68
2023-04-26 03:16:00,,0829.4,4.99,0.00,23.8,22.2,00.0,32.3,25.4,24.8,0000.0,0000.90,0001.50,0000.66
2023-04-26 03:17:00,,0829.4,5.00,0.00,23.8,22.2,00.0,32.3,25.3,24.8,0000.0,0000.92,0001.57,0000.64
2023-04-26 03:18:00,,0829.4,5.00,0.00,23.8,22.2,00.0,32.2,25.3,24.8,0000.0,0000.92,0001.59,0000.63
2023-04-26 03:19:00,,0829.5,5.01,0.00,23.8,22.2,00.0,32.2,25.3,24.8,0000.0,0000.90,0001.57,0000.62
2023-04-26 03:20:00,,0829.5,5.00,0.00,23.8,22.2,00.0,32.2,25.3,24.8,0000.0,0000.91,0001.61,0000.61
2023-04-26 03:21:00,,0829.5,5.01,0.00,23.8,22.2,00.0,32.2,25.3,24.8,0000.0,0000.92,0001.65,0000.61
2023-04-26 03:22:00,,0829.6,5.01,0.00,23.8,22.2,00.0,32.2,25.2,24.9,0000.0,0000.89,0001.67,0000.59
2023-04-26 03:23:00,,0829.6,5.00,0.00,23.8,22.2,00.0,32.2,25.2,24.9,0000.0,0000.86,0001.60,0000.58
2023-04-26 03:24:00,,0829.6,4.99,0.00,23.7,22.2,00.0,32.2,25.3,24.9,0000.0,0000.84,0001.55,0000.58
2023-04-26 03:25:00,,0829.6,5.00,0.00,23.7,22.2,00.0,32.2,25.3,24.9,0000.0,0000.79,0001.35,0000.58
2023-04-26 03:26:00,,0829.6,5.01,0.00,23.7,22.2,00.0,32.2,25.3,24.9,0000.0,0000.75,0001.20,0000.57
2023-04-26 03:27:00,,0829.6,5.01,0.00,23.7,22.2,00.0,32.2,25.3,24.9,0000.0,0000.73,0001.17,0000.56
2023-04-26 03:28:00,,0829.6,5.00,0.00,23.7,22.2,00.0,32.2,25.2,24.9,0000.0,0000.70,0001.33,0000.56
2023-04-26 03:29:00,,0829.6,4.99,0.00,23.7,22.2,00.0,32.2,25.2,24.9,0000.0,0000.67,0001.89,0000.56
2023-04-26 03:30:00,,0829.7,5.00,0.00,23.7,22.2,00.0,32.2,25.2,25.0,0000.0,0000.67,0001.96,0000.57
2023-04-26 03:31:00,,0829.7,5.00,0.00,23.7,22.2,00.0,32.2,25.2,25.0,0000.0,0000.68,0002.00,0000.57
2023-04-26 03:32:00,,0829.7,4.99,0.00,23.7,22.2,00.0,32.1,25.2,25.0,0000.0,0000.70,0002.04,0000.57
2023-04-26 03:33:00,,0829.7,5.01,0.00,23.7,22.2,00.0,32.1,25.2,25.0,0000.0,0000.75,0002.12,0000.59
2023-04-26 03:34:00,,0829.7,5.00,0.00,23.7,22.2,00.0,32.1,25.2,25.0,0000.0,0000.76,0002.16,0000.58
2023-04-26 03:35:00,,0829.6,5.00,0.00,23.7,22.2,00.0,32.1,25.2,25.0,0000.0,0000.75,0002.15,0000.57
2023-04-26 03:36:00,,0829.7,5.00,0.00,23.7,22.1,00.0,32.1,25.2,25.1,0000.0,0000.77,0002.21,0000.58
2023-04-26 03:37:00,,0829.7,5.00,0.00,23.6,22.1,00.0,32.1,25.2,25.1,0000.0,0000.80,0002.27,0000.58
2023-04-26 03:38:00,,0829.7,5.01,0.00,23.6,22.1,00.0,32.1,25.2,25.1,0000.0,0000.84,0002.33,0000.60
2023-04-26 03:39:00,,0829.7,5.01,0.00,23.6,22.1,00.0,32.1,25.2,25.1,0000.0,0000.83,0002.24,0000.60
2023-04-26 03:40:00,,0829.7,5.01,0.00,23.6,22.1,00.0,32.1,25.1,25.2,0000.0,0000.85,0001.49,0000.61
2023-04-26 03:41:00,,0829.7,4.99,0.00,23.6,22.1,00.0,32.1,25.1,25.2,0000.0,0000.87,0001.52,0000.61
2023-04-26 03:42:00,,0829.7,5.00,0.00,23.6,22.1,00.0,32.1,25.2,25.2,0000.0,0000.88,0001.47,0000.62
2023-04-26 03:43:00,,0829.7,5.01,0.00,23.6,22.1,00.0,32.1,25.1,25.2,0000.0,0000.87,0001.45,0000.63
2023-04-26 03:44:00,,0829.7,4.99,0.00,23.6,22.1,00.0,32.1,25.1,25.2,0000.0,0000.84,0001.33,0000.63
2023-04-26 03:45:00,,0829.7,5.00,0.00,23.6,22.1,00.0,32.1,25.1,25.3,0000.0,0000.88,0001.33,0000.65
2023-04-26 03:46:00,,0829.7,4.99,0.00,23.6,22.0,00.0,32.0,25.1,25.3,0000.0,0000.91,0001.39,0000.68
2023-04-26 03:47:00,,0829.7,4.99,0.00,23.6,22.1,00.0,32.0,25.1,25.2,0000.0,0000.94,0001.46,0000.69
2023-04-26 03:48:00,,0829.7,5.01,0.00,23.6,22.0,00.0,32.0,25.1,25.2,0000.0,0000.95,0001.48,0000.70
2023-04-26 03:49:00,,0829.7,5.01,0.00,23.6,22.1,00.0,32.0,25.1,25.3,0000.0,0000.96,0001.54,0000.71
2023-04-26 03:50:00,,0829.7,5.00,0.00,23.6,22.0,00.0,32.0,25.1,25.3,0000.0,0000.99,0001.60,0000.72
2023-04-26 03:51:00,,0829.7,5.00,0.00,23.6,22.0,00.0,32.0,25.1,25.3,0000.0,0001.05,0001.73,0000.74
2023-04-26 03:52:00,,0829.8,5.00,0.00,23.5,22.0,00.0,32.0,25.1,25.3,0000.0,0001.05,0001.70,0000.75
2023-04-26 03:53:00,,0829.7,5.00,0.00,23.5,22.0,00.0,32.0,25.1,25.3,0000.0,0001.04,0001.69,0000.75
2023-04-26 03:54:00,,0829.7,5.00,0.00,23.5,22.0,00.0,32.0,25.1,25.3,0000.0,0001.06,0001.84,0000.76
2023-04-26 03:55:00,,0829.7,4.99,0.00,23.5,22.0,00.0,32.0,25.1,25.3,0000.0,0001.09,0001.89,0000.78
2023-04-26 03:56:00,,0829.7,4.99,0.00,23.5,22.0,00.0,32.0,25.1,25.2,0000.0,0001.07,0001.88,0000.77
2023-04-26 03:57:00,,0829.8,5.00,0.00,23.5,21.9,00.0,32.0,25.0,25.2,0000.0,0001.06,0001.86,0000.77
2023-04-26 03:58:00,,0829.7,5.00,0.00,23.5,21.9,00.0,31.9,25.0,25.2,0000.0,0001.08,0001.90,0000.77
2023-04-26 03:59:00,,0829.7,5.00,0.00,23.5,21.9,00.0,31.9,25.0,25.2,0000.0,0001.07,0001.85,0000.77
